Showing default

YUNYAO-1 48, 63349

Orbit data source: Space-Track

YUNYAO-1 48, 63349 is a payload satellite owned by Yunyao yuhang (CN) in SSO that was launched on Fri, 21 Mar 2025 UTC via a GUSHENXING 1 launch vehicle from the Jiuquan Satellite Launch Center, China (JSC). Payload-class satellites include a variety of spacecraft equipped with specific instruments for various scientific and technological missions. These include communications satellites like Starlink; space stations such as the ISS; scientific satellites like the Hubble; Earth observation satellites from companies like Planet Labs, Umbra, and HawkEye 360; GPS; miniature CubeSats for education and research; and military/defense satellites.

Loading next visibility...
Identifier
63349, 2025-059F
Orbit
SSO
Last TLE update
8 hours ago
Origin
Manufacturer
Changguang WJ
Mission
Operational spacecraft
Bus & Motor
YY-1, Unknown motor
Mass
~50 kg wet, ~50 kg dry
Launch date (UTC)
2025-03-21 (2 months ago)
Launch vehicle
GUSHENXING 1
Launch site
Jiuquan Satellite Launch Center, China (JSC)
Object type
Payload
Rocket body
Debris
Shape & HBR
Unknown
Radar Cross Section
Medium (>0.1 m² and <1 m²)

Expand to show TLE details & history

TLE from 8 hours ago
0 YUNYAO-1 48
1 63349U 25059F   25128.95299545  .00004776  00000-0  29596-3 0  9990
2 63349  97.5989 308.7430 0014452 122.2423 238.0210 15.10153169  7310
Epoch: 2025-05-08T22:52Z
Definitive object data (Epoch: 2025-05-08T22:52:18.806Z)
Latitude
0.00004°
Longitude
98.64853°
Altitude
544.107 km
Speed
7.587 km/s
True Right ascension
20h 34m 58s
True Declination
0° 00' 00"
Sunlit
Object was in daylight at TLE epoch
Visualization TLE readout
Latitude
-76.6194°
Longitude
-114.94331°
Altitude
570.678 km
Speed
7.57 km/s
Apparent Right ascension
03h 24m 15s
Apparent Declination
-61° 15' 46"
Sunlit
Object is in daylight
Visualization observer readout
Local Sidereal Time
14:31:17
Azimuth
196.482° SSW
Elevation
-67.16°
Doppler factor
1
Orbital elements
Apogee altitude
542.707 km
Perigee altitude
522.732 km
Semi-major axis
6,910.857 km
Eccentricity
0.0014452
Inclination
97.5989°
RAAN
308.743°
Arg. of periapsis
122.2423°
True anomaly
237.88066°
Mean anomaly
238.021°
Eccentric anomaly
237.95082°
Mean motion
3.77786 °/min
BSTAR
0.00029596
Orbital period
95.29 mins
Loading maneuver chart data...
Loading SW <> Apogee altitude chart data...
Loading historical data...
Loading historical data...
Loading historical data...
Loading historical data...
Loading historical data...
Loading historical data...
Loading historical data...
Other satellites on launch #59 in the year 2025 (2025-03-21 UTC)

YUNYAO-1 48 Visibility forecast

Observer location: undefined°, undefined°

Span
Click to sort rows by Start time (UTC) header in descending order
Start Az.
Max El. time (UTC)
Max El. Az.
Max El.
End time (UTC)
End Az.
6 mins2025-05-09 11:43:28.448Z150.423° SSE2025-05-09 11:46:28.448Z75.515° E39.819°2025-05-09 11:49:28.448Z359.311° N
6 mins2025-05-10 00:53:28.448Z9.413° NNE2025-05-10 00:55:28.448Z352.037° N43.393°2025-05-10 00:59:28.448Z195.924° SSW
|